Home   Weather   Bad Hersfeld   Past weeks

Flag for Germany Past Weather in Bad Hersfeld, Hesse, Germany — Yesterday and Last 2 Weeks

Now
52 °F

Fog.


Feels Like: 52 °F
Forecast: 58 / 72 °F
Wind: 1 mph from Northwest

Location: Fritzlar Airport

Current Time: Sep 28, 2016 at 2:07:17 AM

Latest Report: Sep 28, 2016 at 1:20 AM


Visibility: N/A

Pressure: 30.30 "Hg

Humidity: 94%

Dew Point: 50 °F

Location of Bad HersfeldLocation

Past Weather in Bad Hersfeld — Graph

°F

Bad Hersfeld Temperature Yesterday

Maximum temperature yesterday: 70 °F (at 5:20 PM)
Minimum temperature yesterday: 54 °F (at 10:20 PM)
Average temperature yesterday: 60 °F

High & Low Weather Summary for the Past Weeks

 TemperatureHumidityPressure
High88 °F (Sep 13, 2:20 PM)100% (Sep 21, 6:20 AM)30.33 "Hg (Sep 21, 6:20 AM)
Low39 °F (Sep 22, 6:03 AM)31% (Sep 13, 4:20 PM)29.83 "Hg (Sep 15, 4:20 PM)
Average61 °F74%30.09 "Hg
* Reported Sep 13 12:20 AM — Sep 28 12:20 AM, Bad Hersfeld, Weather by CustomWeather, © 2016

Note: Actual official high and low records may vary slightly from our data, if they occured in-between our weather recording intervals... More about our weather records

Advertising

Bad Hersfeld Weather History for the Previous 24 Hours

Scroll right to see more
 ConditionsComfort  
Time TempWeatherWind HumidityBarometerVisibility
12:20 AM
Wed, Sep 28
52 °FFog.No wind94%30.33 "HgN/A
11:20 PM
Tue, Sep 27
54 °FFog.No wind94%30.33 "HgN/A
10:20 PM54 °FPassing clouds.2 mph94%30.33 "HgN/A
9:20 PM55 °FPassing clouds.1 mph88%30.33 "HgN/A
8:20 PM59 °FPassing clouds.2 mph88%30.30 "HgN/A
7:20 PM63 °FPassing clouds.2 mph73%30.30 "HgN/A
6:20 PM66 °FPassing clouds.5 mph64%30.30 "HgN/A
5:20 PM70 °FPassing clouds.6 mph57%30.30 "HgN/A
4:20 PM68 °FPassing clouds.5 mph60%30.30 "HgN/A
3:20 PM68 °FPassing clouds.2 mph60%30.30 "HgN/A
2:20 PM66 °FScattered clouds.2 mph68%30.30 "HgN/A
1:20 PM64 °FScattered clouds.2 mph73%30.30 "HgN/A
12:20 PM63 °FScattered clouds.3 mph77%30.30 "HgN/A
11:20 AM61 °FScattered clouds.1 mph83%30.30 "HgN/A
10:20 AM59 °FScattered clouds.2 mph88%30.30 "HgN/A
9:20 AM57 °FScattered clouds.2 mph94%30.30 "Hg6 mi
8:20 AM57 °FBroken clouds.3 mph94%30.27 "Hg6 mi
7:20 AM55 °FRain. Partly sunny.3 mph100%30.27 "Hg4 mi
6:20 AM55 °FThunderstorms. Fog.2 mph100%30.27 "Hg3 mi
5:47 AM55 °FStrong thunderstorms. Passing clouds.7 mph94%30.24 "Hg4 mi
5:20 AM57 °FThundershowers. Partly cloudy.9 mph88%30.24 "HgN/A
4:20 AM57 °FPartly cloudy.6 mph88%30.24 "HgN/A
3:20 AM57 °FLight rain. Partly cloudy.6 mph88%30.24 "HgN/A
2:20 AM57 °FPartly cloudy.5 mph88%30.21 "HgN/A
Weather by CustomWeather, © 2016

See weather overviewHow to use our weather pages